Retour au catalogue

DELTA 1 DEB

LostSSO
NORAD 42089·DEBRIS·🇺🇸 United States

Lancé Dec 15, 1968 depuis Vandenberg Space Force Base

Loading…

Prochains Passages (prochaines 24 heures)

TLE

PériméSource: Space-Track

Époque: Feb 20, 2024, 01:24 UTC

1 42089U 68114R   24051.05901893  .00000147  00000-0  15410-2 0  9995
2 42089 102.1649   1.8080 0153703 109.7817 251.9886 12.31162652418604

Suivez DELTA 1 DEB en temps réel avec AllMySat

Download on the App Store